Regional Weather Roundup
Issued by NWS Charleston, SC

Current Version | Previous Version | Graphics & Text | Print | Product List | Glossary On
Versions: 1 2 3 4 5 6 7 8 9 10 11 12 13 14 15 16 17 18 19 20 21 22 23 24 25 26 27 28 29 30 31 32 33 34 35 36 37 38 39 40 41 42 43 44 45 46 47 48 49 50
000
ASUS42 KCHS 210510
RWRCHS

REGIONAL WEATHER ROUNDUP
NATIONAL WEATHER SERVICE CHARLESTON SC
100 AM EDT TUE OCT 21 2014

NOTE: "FAIR" INDICATES FEW OR NO CLOUDS BELOW 12,000 FEET WITH NO
SIGNIFICANT WEATHER AND/OR OBSTRUCTIONS TO VISIBILITY.

NOT ALL STATIONS ARE QUALITY CONTROLLED BY THE NATIONAL
WEATHER SERVICE. USE DATA WITH CAUTION...ESPECIALLY
DEWPOINT OBSERVATIONS.

SCZ027-030-031-034>040-042>050-210600-
...SOUTH CAROLINA...

CITY           SKY/WX    TMP DP  RH WIND       PRES   REMARKS
N CHARLESTON   PTCLDY    67  61  81 CALM      29.98F
WATERFRONT PRK   N/A     70 N/A N/A CALM        N/A
FORT JOHNSON   NOT AVBL
JOHNS ISLAND   MOCLDY    64  64 100 CALM      29.98F
PINOPOLIS        N/A     66  61  82 CALM      29.92S
MONCKS CORNER  FAIR      59  59 100 CALM      29.98F
SUMMERVILLE    CLOUDY    59  59 100 CALM      29.99F
BEAUFORT MCAS  RAIN      67  64  90 CALM      29.98F
BEAUFORT ARPT  MOCLDY    68  66  94 E3        29.96F
HILTON HEAD IS NOT AVBL
GEORGETOWN     NOT AVBL
WALTERBORO     MOCLDY    63 N/A N/A CALM      29.99F
ORANGEBURG     PTCLDY    57  54  89 CALM      29.99F
BARNWELL       FAIR      54  52  94 CALM      30.00S
AIKEN          FAIR      52  52 100 CALM      30.02F
MANNING        FAIR      59 N/A N/A CALM      29.99F
KINGSTREE      NOT AVBL
COLUMBIA       MOCLDY    54  50  86 CALM      29.98F
SUMTER         PTCLDY    54  52  93 N2        29.97F
FLORENCE       CLEAR     57  54  89 CALM      29.98F
MYRTLE BEACH   PTCLDY    63  55  77 SW3       29.99F
N MYRTLE BEACH PTCLDY    59  57  93 CALM      29.99S

$$

GAZ063-065-086>088-099>101-113>116-118-119-134-136>141-150-210600-
...GEORGIA...

CITY           SKY/WX    TMP DP  RH WIND       PRES   REMARKS
SAVANNAH ARPT  CLOUDY    68  63  84 N3        29.97F
HUNTER AAF     MOCLDY    65  64  95 CALM      29.95F
FORT STEWART   CLOUDY    64  62  91 W7        29.96F
STATESBORO     NOT AVBL
SYLVANIA       PTCLDY    64  64  97 CALM      30.00F
CLAXTON        MOCLDY    64  64 100 CALM      29.99F
THOMSON        PTCLDY    54  54 100 CALM      30.04F
AUGUSTA-BUSH   PTCLDY    51  49  92 CALM      29.99F
AUGUSTA-DANIEL PTCLDY    61  50  67 CALM      30.00F
SWAINSBORO     FAIR      59  59 100 MISG      30.01F
VIDALIA        PTCLDY    63  59  88 CALM      30.00F
ALMA           MOCLDY    64  62  93 CALM      29.98F
WAYCROSS       MOCLDY    68  67  97 N3        29.98F
JESUP          MOCLDY    66  64  94 NW6       29.98F
BRUNSWICK      PTCLDY    64  63  94 CALM      29.98F
SAINT SIMONS   PTCLDY    69  67  93 SW3       29.97F

$$

SCZ027-028-034-036>038-045-046-048>050-GAZ119-141-210600-
...LAKE AND SUPPLEMENTAL COASTAL OBSERVATIONS...

STATION/POSITION TIME  TEMP    WIND        PRES    WAVE   SWELL
                       AIR SEA DIR/SP/G            HT/PER HT/PER/DIR
                 (UTC) (F)     (DEG/KT/KT) (MB)    (FT/S) (FT/S/D)
UPR LAKE MARION  NOT AVBL
WINYAH BAY       0400   61     310/  2     1016.0S
LAKE MURRAY      0400   61        CALM     1015.2S
ACE BASIN NERRS  0400   64        CALM     1015.0S
FORT PULASKI     0500   71        CALM     1015.0F
SAPELO ISLAND    NOT AVBL

$$

ANZ835-935-AMZ111-154-330-350-352-354-374-450-454-472-210600-
...C-MAN AND BUOY OBSERVATIONS...

STATION/POSITION TIME  TEMP    WIND        PRES    WAVE   SWELL
                       AIR SEA DIR/SP/G            HT/PER HT/PER/DIR
                 (UTC) (F)     (DEG/KT/KT) (MB)    (FT/S) (FT/S/D)
FOLLY BEACH CMAN 0400   70      CALM  /  3 1016.1F
BUOY 41004       0500   75 80   10/  2/  2 1015.0F   2/ 8   2/ 8
BUOY 41008       0500   76 76  180/  8/ 10 1015.0F   2/ 9   2/ 70/ 9
5E ST. MARYS GA  0500      77                N/A     2/ 9
FRYING PAN BUOY  0500   73 75  270/ 16/ 17 1015.9F   3/ 4   2/ 90/ 8
BUOY 41025       0500   72     180/ 16/ 19 1015.5F   3/ 8   2/ 60/ 8
CAPE LOOKOUT NC  0400   67     240/  4/  4 1016.0R
BUOY 41002       0440   75 80  170/ 14/ 17 1016.9F   4/ 8   3/ 50/ 8
BUOY 41010       0500   80 80  190/ 12/ 14 1015.1S   3/ 9   3/ 70/ 9
BUOY 41012       NOT AVBL
ST AUGUSTINE FL  0500   75     190/  4/  5 1015.2F
CAPERS NEARSHORE 0400   72      CALM  /  2   N/A
FRIPP NEARSHORE  NOT AVBL


$$



USA.gov is the U.S. government's official web portal to all federal, state and local government web resources and services.